Salisbury, MD

12:29 PM EST on February 26, 2017 (GMT -0500)
Salisbury-Ocean City Wicomico Regional

Weather History for KSBY - October, 2013

Change the Weather History Date:

Monday, October 7, 2013

  Actual Average Record
Temperature  
Mean Temperature 75 °F 60 °F  
Max Temperature 87 °F 71 °F 91 °F (2007)
Min Temperature 63 °F 49 °F 31 °F (2001)
Degree Days  
Heating Degree Days 0 6  
Month to date heating degree days 0 37  
Since 1 July heating degree days 27 85  
Cooling Degree Days 10 1  
Month to date cooling degree days 65 11  
Year to date cooling degree days 1597 1136  
Growing Degree Days 24 (Base 50)    
Moisture  
Dew Point 67 °F    
Average Humidity 74    
Maximum Humidity 90    
Minimum Humidity 57    
Precipitation  
Precipitation 0.58 in 0.12 in 3.08 in (1972)
Month to date precipitation 0.58 0.81  
Year to date precipitation 41.03 35.86  
Snow  
Snow 0.00 in 0.00 in 0.00 in (2002)
Month to date snowfall 0.0 0.0  
Since 1 July snowfall 0.0 0.0  
Snow Depth 0.00 in    
Sea Level Pressure  
Sea Level Pressure 29.92 in    
Wind  
Wind Speed 8 mph (SSW)    
Max Wind Speed 23 mph    
Max Gust Speed 33 mph    
Visibility 8 miles    
Events Rain    
T = Trace of Precipitation, MM = Missing Value Source: NWS Daily Summary

Daily Weather History Graph

Daily Weather History Graph

Search for Another Location

Airport or City:

Trip Planner

Search our weather history database for the weather conditions in past years. The results will help you decide how hot, cold, wet, or windy it might be!

Date:

Astronomy

Oct. 07, 2013 Rise Set
Actual Time 7:03 AM EDT 6:35 PM EDT
Civil Twilight 6:37 AM EDT 7:01 PM EDT
Nautical Twilight 6:06 AM EDT 7:32 PM EDT
Astronomical Twilight 5:35 AM EDT 8:03 PM EDT
Moon 9:48 AM EDT (10/7) 8:21 PM EDT (10/7)
Length of Visible Light 12h 24m
Length of Day
11h 31m
Waxing Crescent, 8% of the Moon is Illuminated
Oct 7
Waxing Crescent
Oct 11
First Quarter
Oct 18
Full
Oct 26
Last Quarter
Nov 3
New

Hourly Weather History & Observations

Time (EDT) Temp. Heat Index Dew Point Humidity Pressure Visibility Wind Dir Wind Speed Gust Speed Precip Events Conditions
12:54 AM 72.0 °F - 66.9 °F 84% 29.99 in 10.0 mi SSE 4.6 mph - N/A   Clear
1:54 AM 72.0 °F - 68.0 °F 87% 29.98 in 10.0 mi SE 6.9 mph - N/A   Clear
2:54 AM 72.0 °F - 68.0 °F 87% 29.97 in 10.0 mi SSE 4.6 mph - N/A   Partly Cloudy
3:54 AM 72.0 °F - 68.0 °F 87% 29.95 in 10.0 mi SE 5.8 mph - N/A   Mostly Cloudy
4:54 AM 73.0 °F - 68.0 °F 84% 29.94 in 10.0 mi SSE 6.9 mph - N/A   Mostly Cloudy
5:54 AM 73.0 °F - 68.0 °F 84% 29.94 in 10.0 mi SSE 5.8 mph - N/A   Overcast
6:54 AM 73.0 °F - 68.0 °F 84% 29.93 in 10.0 mi SSW 4.6 mph - 0.00 in Rain Light Rain
7:11 AM 73.4 °F - 69.8 °F 88% 29.92 in 9.0 mi Calm Calm - 0.00 in Rain Light Rain
7:54 AM 73.0 °F - 69.1 °F 87% 29.92 in 10.0 mi SSE 4.6 mph - 0.00 in   Mostly Cloudy
8:01 AM 73.4 °F - 69.8 °F 88% 29.91 in 10.0 mi South 5.8 mph - N/A   Mostly Cloudy
8:14 AM 73.4 °F - 69.8 °F 88% 29.90 in 10.0 mi SSE 5.8 mph - N/A   Overcast
8:23 AM 73.4 °F - 69.8 °F 88% 29.91 in 10.0 mi South 8.1 mph - N/A   Overcast
8:54 AM 75.0 °F - 71.1 °F 87% 29.91 in 2.5 mi South 13.8 mph 20.7 mph 0.04 in Rain Light Rain
9:06 AM 75.2 °F - 71.6 °F 89% 29.90 in 10.0 mi South 10.4 mph - 0.00 in Rain Light Rain
9:54 AM 77.0 °F - 72.0 °F 84% 29.91 in 10.0 mi South 13.8 mph 23.0 mph 0.00 in   Mostly Cloudy
10:54 AM 80.1 °F 83.8 °F 72.0 °F 76% 29.90 in 10.0 mi South 12.7 mph 20.7 mph N/A   Mostly Cloudy
11:05 AM 80.6 °F 84.6 °F 71.6 °F 74% 29.89 in 10.0 mi South 16.1 mph 23.0 mph N/A   Scattered Clouds
11:13 AM 80.6 °F 84.6 °F 71.6 °F 74% 29.89 in 10.0 mi South 12.7 mph 21.9 mph N/A   Mostly Cloudy
11:54 AM 84.0 °F 89.0 °F 71.1 °F 65% 29.89 in 10.0 mi South 11.5 mph 25.3 mph N/A   Mostly Cloudy
12:01 PM 82.4 °F 86.3 °F 69.8 °F 66% 29.88 in 10.0 mi South 15.0 mph 24.2 mph N/A   Mostly Cloudy
12:54 PM 84.9 °F 88.2 °F 68.0 °F 57% 29.87 in 10.0 mi South 17.3 mph 27.6 mph N/A   Mostly Cloudy
1:54 PM 84.9 °F 88.8 °F 69.1 °F 59% 29.86 in 10.0 mi SSW 17.3 mph 24.2 mph N/A   Mostly Cloudy
2:54 PM 86.0 °F 90.7 °F 70.0 °F 59% 29.85 in 10.0 mi South 8.1 mph 17.3 mph N/A   Partly Cloudy
3:40 PM 71.6 °F - 64.4 °F 78% 29.90 in 9.0 mi West 21.9 mph 33.4 mph 0.00 in Rain Light Rain
3:48 PM 69.8 °F - 64.4 °F 83% 29.89 in 1.8 mi West 18.4 mph 33.4 mph 0.06 in Rain Heavy Rain
3:54 PM 70.0 °F - 64.9 °F 84% 29.90 in 1.5 mi West 10.4 mph 26.5 mph 0.08 in Rain Rain
3:58 PM 69.8 °F - 66.2 °F 88% 29.90 in 3.0 mi West 12.7 mph 21.9 mph 0.00 in Rain Light Rain
4:13 PM 69.8 °F - 66.2 °F 88% 29.91 in 2.5 mi West 8.1 mph - 0.03 in Rain Rain
4:19 PM 69.8 °F - 66.2 °F 88% 29.90 in 1.0 mi West 8.1 mph - 0.15 in Rain Heavy Rain
4:23 PM 69.8 °F - 66.2 °F 88% 29.90 in 0.8 mi West 5.8 mph - 0.18 in Rain Heavy Rain
4:31 PM 69.8 °F - 66.2 °F 88% 29.91 in 1.5 mi Variable 3.5 mph - 0.20 in Rain Rain
4:35 PM 69.8 °F - 66.2 °F 88% 29.91 in 2.0 mi WSW 8.1 mph - 0.21 in Rain Rain
4:42 PM 69.8 °F - 66.2 °F 88% 29.91 in 1.8 mi West 9.2 mph - 0.25 in Rain Heavy Rain
4:54 PM 70.0 °F - 66.0 °F 87% 29.93 in 1.8 mi WSW 6.9 mph - 0.31 in Rain Rain
5:02 PM 69.8 °F - 66.2 °F 88% 29.91 in 3.0 mi WSW 4.6 mph - 0.01 in Rain Light Rain
5:51 PM 69.8 °F - 66.2 °F 88% 29.91 in 2.0 mi South 3.5 mph - 0.08 in Rain Rain
5:54 PM 70.0 °F - 66.9 °F 90% 29.92 in 2.5 mi Calm Calm - 0.08 in Rain Light Rain
6:01 PM 69.8 °F - 66.2 °F 88% 29.91 in 4.0 mi Calm Calm - 0.01 in Rain Light Rain
6:50 PM 69.8 °F - 66.2 °F 88% 29.91 in 7.0 mi Variable 3.5 mph - 0.07 in Rain Light Rain
6:54 PM 70.0 °F - 66.9 °F 90% 29.94 in 9.0 mi South 3.5 mph - 0.07 in Rain Light Rain
7:01 PM 69.8 °F - 66.2 °F 88% 29.93 in 10.0 mi Calm Calm - 0.00 in   Mostly Cloudy
7:08 PM 69.8 °F - 66.2 °F 88% 29.93 in 10.0 mi Calm Calm - 0.00 in   Mostly Cloudy
7:30 PM 66.2 °F - 62.6 °F 88% 29.94 in 10.0 mi North 10.4 mph 18.4 mph 0.00 in   Overcast
7:54 PM 63.0 °F - 59.0 °F 87% 29.96 in 10.0 mi NNW 9.2 mph - 0.00 in   Overcast
8:15 PM 62.6 °F - 59.0 °F 88% 29.96 in 10.0 mi NNW 9.2 mph - N/A   Overcast
8:54 PM 63.0 °F - 59.0 °F 87% 29.97 in 10.0 mi NNW 5.8 mph - N/A   Overcast
9:54 PM 64.0 °F - 59.0 °F 84% 29.99 in 10.0 mi NNW 5.8 mph - N/A   Overcast
10:12 PM 64.4 °F - 59.0 °F 83% 29.99 in 10.0 mi NNW 6.9 mph - N/A   Overcast
10:54 PM 64.0 °F - 57.9 °F 80% 30.02 in 10.0 mi NNW 6.9 mph - N/A   Overcast
11:54 PM 64.0 °F - 57.9 °F 80% 30.04 in 10.0 mi NNW 6.9 mph - N/A   Overcast